Regional Weather Roundup
Issued by NWS

Home | Current Version | Previous Version | Graphics & Text | Print | Product List | Glossary On
Versions: 1 2 3 4 5 6 7 8 9 10 11 12 13 14 15 16 17 18 19 20 21 22 23 24 25 26 27 28 29 30 31 32 33 34 35 36 37 38 39 40 41 42 43 44 45 46 47 48 49 50
000
ASUS43 KMKX 301411
RWRWI

WISCONSIN REGIONAL WEATHER ROUNDUP
NATIONAL WEATHER SERVICE MILWAUKEE/SULLIVAN WI
900 AM CDT SAT AUG 30 2014

NOTE: "FAIR" INDICATES FEW OR NO CLOUDS BELOW 12,000 FEET WITH NO
SIGNIFICANT WEATHER AND/OR OBSTRUCTIONS TO VISIBILITY.

WIZ001-002-006>008-014>016-023>028-301500-
NORTHWEST WISCONSIN

CITY           SKY/WX    TMP DP  RH WIND       PRES   REMARKS
SUPERIOR ARPT  CLOUDY    65  61  88 NE5       29.84S
ASHLAND        CLOUDY    62  60  93 N6        29.84R
HAYWARD        CLOUDY    61  61 100 NE5       29.83R
SIREN          CLOUDY    62  61  94 NE8       29.84R
RICE LAKE      CLOUDY    64  63  96 N6        29.82R
LADYSMITH      CLOUDY    65  64  97 N7        29.81S
EAU CLAIRE     CLOUDY    68  66  93 NW5       29.79R
MENOMONIE      CLOUDY    67  66  99 W5        29.80S
NEW RICHMOND   CLOUDY    64  63  95 N6        29.83R
OSCEOLA        CLOUDY    65  65 100 N6        29.85R
$$

WIZ003>005-009-010-017-018-301500-
NORTH CENTRAL WISCONSIN

CITY           SKY/WX    TMP DP  RH WIND       PRES   REMARKS
WOODRUFF       DRIZZLE   65  63  94 N5        29.79S
RHINELANDER    CLOUDY    65  63  93 CALM      29.79S
EAGLE RIVER    CLOUDY    64  64 100 CALM      29.79R FOG
LAND O LAKES   CLOUDY    65  64  97 N5        29.80R
PHILLIPS       DRIZZLE   63  62  97 N3        29.80R
TOMAHAWK       CLOUDY    64  64  97 CALM      29.79S
MEDFORD        CLOUDY    65  64  97 W5        29.78S
MERRILL        CLOUDY    65  65  99 CALM      29.78R
$$

WIZ029-030-035-036-043>047-301500-
CENTRAL WISCONSIN

CITY           SKY/WX    TMP DP  RH WIND       PRES   REMARKS
WAUSAU         CLOUDY    67  65  93 NW6       29.75S
MOSINEE        CLOUDY    66  66 100 NW8       29.77S FOG
MARSHFIELD     CLOUDY    69  66  90 NW7       29.77S
STEVENS POINT  CLOUDY    65  64  97 W3        29.76R
WAUPACA        CLOUDY    71  69  91 SW12G17   29.74S
WAUTOMA        LGT RAIN  70  68  93 SW7       29.76S
WISC RAPIDS    CLOUDY    68  67  96 W5        29.78R
CAMP DOUGLAS   LGT RAIN  66  66 100 W3        29.78R
$$

WIZ011>013-019>022-031-037>040-048>050-301500-
NORTHEAST WISCONSIN

CITY           SKY/WX    TMP DP  RH WIND       PRES   REMARKS
ANTIGO         CLOUDY    64  64 100 N7        29.77F
STURGEON BAY   PTSUNNY   72  66  83 S12       29.75S
GREEN BAY      MOSUNNY   72  69  90 S9        29.73F
MANITOWOC      PTSUNNY   75  69  81 SW12      29.77S
APPLETON       PTSUNNY   72  66  83 SW14      29.75F
CLINTONVILLE   CLOUDY    70  66  88 SW8       29.73S
OSHKOSH        PTSUNNY   72  68  87 SW9       29.75F
$$

WIZ032>034-041-042-053>061-301500-
SOUTHWEST WISCONSIN

CITY           SKY/WX    TMP DP  RH WIND       PRES   REMARKS
LA CROSSE      LGT RAIN  69  66  90 NW8       29.77R FOG
SPARTA         RAIN      67  65  96 CALM      29.78S
VIROQUA        CLOUDY    67  67 100 W6        29.79R
BOSCOBEL       LGT RAIN  71  67  87 SW7       29.77S
PRAIRIE DU CHI DRIZZLE   68  66  92 W8        29.78R
PLATTEVILLE    CLOUDY    69  67  94 SW9       29.81R
$$

WIZ056-057-062-063-064-067-068-301500-
SOUTH CENTRAL WISCONSIN

CITY           SKY/WX    TMP DP  RH WIND       PRES   REMARKS
BARABOO/DELLS  CLOUDY    69  66  89 W7        29.77S
LONE ROCK      PTSUNNY   76  67  73 W7        29.77S
WATERTOWN      PTSUNNY   73  68  86 SW13G20   29.79S
MADISON        CLOUDY    73  67  81 S9        29.78S
MIDDLETON      CLOUDY    74  69  87 S12       29.79S
MONROE         CLOUDY    68  64  88 SW14      29.81S
JANESVILLE     PTSUNNY   73  64  73 S8        29.81S
$$

WIZ051-052-058>065-066-070>072-301500-
SOUTHEAST WISCONSIN

CITY           SKY/WX    TMP DP  RH WIND       PRES   REMARKS
MILWAUKEE      MOSUNNY   74  66  76 SW16      29.81S
WAUKESHA       PTSUNNY   70  66  88 S13G23    29.82S
MILWAUKEE/TIMM NOT AVBL
RACINE         MOSUNNY   74  67  78 SW15G23   29.83S
BURLINGTON     MOSUNNY   71  66  83 S10G16    29.82S
KENOSHA        MOSUNNY   74  68  81 SW13      29.83S
FOND DU LAC    RAIN      71  68  90 SW13      29.77S FOG
SHEBOYGAN      PTSUNNY   73  68  84 SW9       29.78R
WEST BEND      CLOUDY    72  63  73 SW9G18    29.80S
JUNEAU         CLOUDY    71  67  87 S16       29.80S
$$

LSZ147-162-301500-
LAKE SUPERIOR

STATION/POSITION TIME  TEMP    WIND        PRES    WAVE
                       AIR SEA DIR/SP/G            HT/PER
                 (UTC) (F)     (DEG/KT/KT) (MB)    (FT/S)
W MID LAKE BUOY  1350   58 57   10/  8/  8 1009.8R   1
DEVILS ISLAND    1400   60      50/  4/  4 1010.6R
PORT WING        1300   63      10/  7/  7 1010.5R
SAXON HARBOR     1300   62      20/ 10/ 11 1009.8R
$$

LMZ867-665-643>646-301500-
LAKE MICHIGAN

STATION/POSITION TIME  TEMP    WIND        PRES    WAVE
                       AIR SEA DIR/SP/G            HT/PER
                 (UTC) (F)     (DEG/KT/KT) (MB)    (FT/S)
N MID LAKE BUOY  1350   67 65  200/ 14/ 17 1007.1F   4/ 5
NORTHPORT PIER   1300   67     140/  4/  6 1007.1F
SISTER BAY       1241   71     140/  3/  5   N/A
KEWAUNEE LAKESHO 1300   64     180/  9/ 10 1006.8F
SHEBOYGAN LAKESH 1400   71 56  190/ 15/ 16 1008.3R
ATWATER BUOY     1400   68     190/ 10/ 14 1010.3S
MILWAUKEE LAKESH 1300   72     220/ 11/ 14   N/A
S MID LAKE BUOY  1350   71 69  180/ 12/ 14   N/A
KENOSHA   LAKESH 1400   74     230/ 12/ 18 1009.8S
$$

TC  - TEMPERATURE IN CELSIUS
VSB - VISIBILITY IN STATUTE MILES
WCI - WIND CHILL INDEX
HX  - HEAT INDEX




USA.gov is the U.S. government's official web portal to all federal, state and local government web resources and services.